Volver al catálogo

TIANHUI 6A

ActivoCienciaSSO
NORAD 55836·PAYLOAD·🇨🇳 China

Lanzado Mar 9, 2023 desde Taiyuan Satellite Launch Center

Loading…

Próximos Pases (próximas 24 horas)

TLE

ActualizadoSource: Space-Track

Época: Sep 14, 2026, 14:44 UTC

1 55836U 23030A   26257.61434394 -.00000117  00000-0 -48626-4 0  9992
2 55836  99.0125 264.7497 0003135 131.0759 229.0678 14.01326929179921

Sigue TIANHUI 6A en tiempo real con AllMySat

Download on the App Store